OPS 4682 DEB, 38411

Orbit data source: Space-Track

OPS 4682 DEB, 38411 is space debris in LEO originally from a launch on Sat, 03 Apr 1965 UTC launched from the Air Force Western Test Range (AFWTR). Debris objects in space refer to the collection of defunct objects orbiting the Earth. Examples of debris include non-operational satellites, rocket bodies, and fragments generated from explosions, collisions, or faulty payload assembly.

Loading next visibility...
Identifier
38411, 1965-027DQ
Orbit
LEO
Country
Flag of USUS
Related business
Manufacturer
Unknown
Mission
Spacecraft
Bus & Motor
Unknown
Mass
Unknown
Launch date (UTC)
1965-04-03 (61 years ago)
Launch vehicle
Unknown
Launch site
Air Force Western Test Range (AFWTR)
Object type
Payload
Rocket body
Debris
Shape & HBR
Unknown shape, 0.1 m
Radar Cross Section
Medium (>0.1 m² and <1 m²)

Expand to show TLE details & history
Last TLE update: 2 days ago

TLE from 2 days ago
0 OPS 4682 DEB
1 38411U 65027DQ  26206.45452421  .00000554  00000-0  18918-2 0  9993
2 38411  90.2544  16.9796 0038503 353.8204   6.2436 12.96917298667830
Epoch: 2026-07-25T10:54Z
TLE epoch observation values (Epoch: 2026-07-25T10:54:30.891Z)
Latitude
-0.00007°
Longitude
-89.81568°
Altitude
1,247.775 km
Speed
7.245 km/s
True Right ascension
01h 07m 55s
True Declination
0° 00' 00"
Sunlit
Object was in daylight at epoch
Visualization orbit readout
Latitude
Unknown
Longitude
Unknown
Altitude
Unknown
Speed
Unknown
Apparent Right ascension
Unknown
Apparent Declination
Unknown
Sunlit
N/A
Visualization observer readout
Local Sidereal Time
09:17:42
Azimuth
Unknown
Elevation
Unknown
Doppler factor
Unknown
Orbital elements
Apogee altitude
1,300.773 km
Perigee altitude
1,241.868 km
Semi-major axis
7,649.457 km
Eccentricity
0.00385
Inclination
90.2544°
RAAN
16.9796°
Arg. of periapsis
353.8204°
True anomaly
6.29181°
Mean anomaly
6.2436°
Eccentric anomaly
6.26768°
Mean motion
3.24412 °/min
Orbital period
110.97 mins
BSTAR
0.0018918
Loading maneuver chart data...
Computing Atmospheric mass density...
Loading historical data...
Loading historical data...
Loading historical data...
Loading historical data...
Loading historical data...
Loading historical data...
Loading historical data...

Documentation

Showing up to 5 results
|